Wind_Speed
28 26 23 19 18 16 15 13 14 13 12 11 11 10 8 8 7 6 7 9 10 11 12 13 15 16 17 18 18 19 19 19 19 19 19 18 16 14 12 10 8 7 7 8
28 24 21 19 17 15 14 12 12 11 11 11 10 8 7 6 5 5 6 8 9 10 12 13 14 15 16 17 18 19 19 20 20 20 19 19 17 16 14 12 10 7 6 6
24 21 20 18 16 14 11 9 10 11 11 10 9 8 5 3 3 3 6 7 8 9 11 12 13 14 16 17 18 19 19 20 20 20 20 19 19 17 16 15 13 10 8 6
23 21 18 17 15 12 9 9 10 10 10 10 9 6 4 2 0 2 5 7 7 8 10 11 12 14 15 16 17 18 19 20 20 20 20 20 20 19 18 17 16 14 11 9
20 19 16 14 13 11 10 10 10 9 9 8 6 4 2 2 2 3 4 5 6 7 8 10 11 13 14 15 16 17 18 19 20 20 20 20 20 20 19 18 17 16 14 11
18 18 17 14 12 11 11 10 10 9 9 7 5 3 3 4 3 4 3 3 4 5 7 8 10 11 13 14 15 16 17 19 19 20 20 20 20 20 19 19 19 17 16 14
17 16 15 13 12 12 11 10 10 10 10 8 6 5 5 5 4 4 3 3 3 4 6 7 9 10 12 13 14 15 16 17 18 19 20 20 20 20 20 20 19 19 18 16
17 15 13 13 12 12 11 11 10 11 11 10 8 6 5 5 5 4 3 2 2 3 4 6 7 9 10 12 13 14 16 17 18 18 18 19 19 19 19 19 19 19 19 18
17 15 13 12 12 11 11 10 10 11 12 11 8 6 5 5 4 4 3 2 2 3 4 5 6 8 9 11 13 14 15 16 17 18 18 18 18 18 19 19 19 19 19 19
15 14 13 12 12 11 11 11 11 11 11 11 9 8 8 6 4 3 3 3 2 2 3 4 5 7 9 11 13 14 15 16 17 17 18 18 18 18 18 19 19 19 19 19
13 14 13 12 12 12 11 11 11 11 11 10 8 7 7 7 6 5 4 3 2 1 2 3 5 7 9 11 13 14 15 16 17 18 18 18 19 19 19 19 19 19 19 19
12 12 13 13 13 12 12 12 11 11 10 10 8 7 7 7 7 7 5 4 2 1 1 3 6 8 9 11 13 15 16 17 17 18 18 18 18 18 18 18 18 19 19 19
13 14 13 13 13 14 14 13 12 12 11 10 8 7 7 7 7 6 5 4 2 1 1 3 6 8 10 12 13 15 16 17 18 18 18 18 18 19 18 18 18 19 19 19
15 15 15 15 15 15 15 14 13 12 12 10 8 7 7 7 7 6 5 4 2 1 2 4 6 8 10 12 14 15 16 17 18 18 18 18 18 19 19 19 19 19 19 19
17 17 17 16 16 16 15 14 14 13 12 11 9 8 8 8 7 6 5 4 3 3 4 5 7 9 11 12 14 15 16 17 18 18 18 19 19 19 19 19 19 19 19 19
18 18 18 16 16 16 15 14 14 14 13 11 10 10 10 10 9 7 6 5 4 5 6 7 9 10 12 13 14 16 17 18 18 19 19 19 19 19 19 19 19 19 19 19
19 19 19 17 18 17 14 14 15 15 13 12 11 10 11 10 9 8 6 6 7 7 8 9 10 11 12 13 15 16 17 18 19 19 20 20 20 20 20 20 19 19 19 19
18 20 20 19 20 18 13 17 17 16 15 13 12 11 10 10 9 8 8 8 9 9 10 11 12 12 13 14 15 16 18 19 19 20 21 21 21 21 21 21 21 20 20 20
19 20 21 21 21 18 16 17 17 17 16 15 14 13 12 11 11 10 10 10 11 11 12 13 13 14 14 15 16 17 18 19 20 21 22 23 23 23 23 22 22 22 21 21
21 21 22 22 23 20 16 19 20 19 17 17 16 15 14 13 13 13 12 12 13 13 14 14 14 15 15 16 17 18 20 21 22 24 25 25 25 25 25 24 24 23 23 22
23 23 23 23 24 20 18 20 21 20 18 19 17 16 15 14 15 15 15 14 14 15 15 15 15 16 16 17 19 20 22 23 25 26 27 28 28 27 27 26 26 25 24 23
24 25 24 24 24 19 20 22 22 21 20 20 19 18 18 17 18 17 17 17 17 17 17 16 17 17 18 19 21 22 24 26 27 28 29 30 29 29 28 28 27 26 25 25
25 25 25 26 24 22 23 22 22 22 22 21 21 21 20 20 20 19 19 19 18 18 18 18 18 19 20 21 23 24 26 28 29 30 31 31 31 30 29 29 28 28 27 26
27 27 28 27 25 25 24 24 23 24 23 23 23 22 22 21 21 21 20 20 19 19 19 19 19 20 21 23 25 26 27 29 30 32 32 32 32 31 30 29 28 28 27 26
31 30 29 28 27 28 27 26 26 25 25 24 24 23 23 22 22 22 21 21 21 21 21 21 21 22 24 25 26 28 29 30 32 33 33 33 32 32 31 30 28 27 26 26
34 34 33 31 30 30 29 28 28 27 26 25 25 25 24 23 23 23 23 22 23 23 23 23 24 24 26 27 28 30 31 32 34 34 35 34 34 33 31 29 29 28 27 26
Wind_Direction
218 223 228 236 243 250 260 273 284 291 296 299 307 317 328 342 348 0 15 22 20 16 15 15 16 16 14 13 11 11 12 12 12 12 12 11 9 7 2 353 337 315 294 275
216 219 223 230 237 245 256 271 283 292 296 297 305 320 331 338 344 3 24 32 29 23 21 21 22 20 18 19 19 19 19 19 19 19 18 18 16 15 12 9 359 343 322 298
215 217 221 225 231 240 254 275 282 287 294 302 313 322 318 319 336 16 35 38 36 30 27 26 24 22 22 22 21 22 23 23 23 23 24 24 24 23 20 19 16 11 356 333
209 213 219 224 230 241 254 271 279 282 292 301 303 303 289 284 317 51 47 43 37 33 31 28 26 24 23 23 23 23 24 24 24 25 26 26 26 26 25 24 22 18 13 4
204 211 218 225 233 241 251 263 274 283 288 287 281 266 246 207 154 93 64 46 36 32 30 26 25 24 23 23 23 24 24 24 24 24 25 25 25 25 25 24 22 20 16 11
201 209 217 226 236 242 248 260 271 274 274 261 246 201 163 158 142 117 91 61 42 31 25 24 24 23 22 22 22 23 23 23 23 23 23 23 23 23 23 23 23 22 20 17
199 207 215 224 235 241 248 256 260 260 256 241 228 187 159 146 139 128 111 77 49 29 21 21 21 22 22 22 21 21 21 21 21 21 21 22 22 22 22 21 21 21 20 19
196 202 210 222 233 240 246 250 252 255 255 244 225 189 165 151 144 134 116 86 54 34 27 23 21 20 20 18 16 16 15 15 15 15 16 17 18 18 18 18 18 18 17 17
197 202 214 226 232 238 242 242 244 248 250 240 219 187 170 162 149 133 114 94 70 51 38 27 20 15 12 11 9 8 7 7 8 9 10 11 11 12 14 14 14 14 14 13
206 210 215 225 230 234 235 235 235 239 242 237 220 200 184 179 167 152 138 121 100 69 40 24 15 9 7 4 2 1 0 1 1 1 2 3 5 7 8 9 9 9 9 9
211 213 216 225 227 225 225 227 231 235 238 236 226 200 189 183 177 170 162 149 129 85 33 10 3 2 0 358 356 354 354 354 355 356 357 358 1 2 3 3 4 4 5 5
227 225 226 230 233 230 224 224 226 230 235 236 231 213 202 187 178 173 169 165 154 120 3 354 353 354 353 351 351 350 349 350 351 352 353 355 357 358 359 360 360 0 1 2
242 241 237 234 235 229 223 222 224 227 230 232 231 216 204 187 179 174 172 175 177 200 337 344 345 346 346 345 345 345 346 347 348 350 351 352 353 354 355 356 356 356 357 357
245 245 242 239 237 231 225 223 223 224 226 224 220 213 203 196 188 182 180 185 199 252 311 326 332 336 338 340 341 343 344 346 347 348 350 351 352 352 352 353 353 353 354 355
245 244 244 241 238 236 233 230 228 225 223 219 210 198 196 199 197 195 194 203 232 271 296 312 322 328 332 336 338 341 343 344 346 347 348 349 349 349 349 350 350 350 351 352
244 243 242 240 240 237 230 229 228 226 224 220 208 190 195 198 200 204 210 225 253 275 290 303 314 321 326 331 335 337 339 341 343 344 345 346 346 345 345 345 345 345 346 347
242 241 240 238 236 234 223 226 228 225 223 219 210 202 200 201 205 213 226 244 262 275 286 297 305 313 320 325 330 334 336 337 339 340 340 341 341 341 340 340 340 340 340 341
238 238 238 237 236 233 222 226 225 223 222 220 216 215 214 216 220 230 243 255 265 276 285 294 300 307 314 320 325 328 331 334 335 336 337 337 337 335 334 334 334 334 334 334
237 237 236 236 238 232 227 231 233 230 225 226 223 224 228 232 238 244 252 259 267 276 285 292 297 303 309 315 320 324 327 329 331 332 333 332 331 330 329 329 329 329 328 328
240 237 236 236 237 232 223 231 234 233 229 231 231 231 233 239 247 252 256 263 269 276 284 289 294 299 305 311 316 320 323 325 327 329 329 328 326 325 324 324 323 322 322 322
242 240 239 238 238 232 226 232 235 237 233 234 237 238 240 244 250 256 261 266 271 276 282 287 292 296 302 308 313 317 319 322 324 326 327 325 323 322 321 320 319 317 317 317
242 240 239 239 239 233 232 232 235 237 237 239 241 244 246 248 252 257 262 267 271 275 280 285 290 294 300 305 310 314 317 320 321 323 324 324 322 321 320 318 316 314 313 313
241 240 239 239 239 236 237 236 236 237 238 241 243 246 248 252 255 259 262 266 270 274 279 283 288 292 297 302 307 311 315 318 320 321 322 322 321 320 319 316 314 312 310 310
242 240 240 239 238 238 239 240 241 241 241 242 244 247 250 252 256 259 262 266 270 274 277 282 286 290 295 299 303 308 312 315 317 318 319 319 319 318 317 315 313 310 308 308
239 242 243 242 240 239 239 241 243 244 245 246 247 250 252 254 257 259 263 266 270 273 276 280 284 288 292 297 301 304 308 311 314 316 317 317 316 315 314 313 311 309 307 306
237 241 242 242 242 242 240 240 243 246 248 249 251 253 255 256 258 260 263 266 268 271 275 278 282 286 290 295 298 302 305 308 311 313 315 315 313 312 311 310 308 307 306 305
Height
5853 5857 5861 5864 5866 5868 5869 5869 5869 5869 5869 5868 5867 5865 5863 5861 5860 5859 5858 5857 5855 5853 5851 5848 5845 5841 5838 5835 5831 5827 5822 5818 5813 5809 5805 5800 5797 5793 5791 5788 5786 5785 5785 5784
5850 5854 5858 5860 5863 5864 5866 5866 5866 5866 5865 5865 5863 5862 5861 5859 5859 5858 5856 5855 5854 5852 5850 5848 5845 5842 5839 5835 5831 5827 5823 5819 5814 5810 5805 5801 5797 5794 5791 5788 5786 5784 5783 5783
5848 5853 5854 5857 5859 5861 5863 5863 5863 5863 5862 5861 5860 5860 5859 5858 5857 5856 5855 5854 5853 5852 5850 5848 5845 5842 5839 5836 5832 5828 5824 5820 5815 5811 5807 5803 5799 5795 5792 5789 5786 5784 5782 5781
5845 5848 5852 5854 5856 5858 5860 5860 5860 5859 5859 5858 5859 5858 5858 5857 5856 5855 5854 5853 5853 5852 5850 5848 5846 5843 5840 5837 5833 5829 5825 5821 5817 5812 5808 5804 5800 5797 5793 5790 5787 5784 5782 5781
5843 5847 5850 5852 5855 5856 5857 5858 5857 5857 5857 5857 5857 5857 5857 5856 5855 5854 5853 5853 5853 5852 5850 5848 5846 5844 5841 5838 5834 5830 5826 5822 5818 5814 5810 5806 5802 5798 5795 5791 5788 5785 5783 5781
5842 5845 5848 5850 5852 5853 5854 5855 5855 5855 5855 5856 5855 5855 5855 5854 5854 5853 5853 5853 5852 5851 5850 5848 5846 5844 5841 5838 5835 5831 5828 5824 5820 5815 5811 5807 5804 5800 5796 5793 5790 5787 5784 5781
5840 5843 5846 5848 5850 5851 5852 5853 5853 5853 5853 5853 5853 5853 5853 5853 5853 5853 5853 5852 5852 5851 5850 5848 5846 5844 5842 5839 5836 5832 5829 5825 5821 5817 5813 5809 5805 5802 5798 5795 5791 5788 5785 5782
5838 5842 5844 5845 5847 5848 5848 5850 5852 5852 5851 5851 5851 5850 5852 5851 5851 5851 5851 5851 5851 5850 5849 5848 5846 5844 5842 5839 5836 5833 5829 5826 5822 5818 5815 5811 5807 5803 5800 5796 5793 5789 5786 5783
5837 5841 5842 5843 5844 5845 5846 5847 5848 5849 5849 5849 5848 5849 5849 5849 5849 5850 5850 5850 5850 5850 5849 5848 5846 5844 5842 5839 5836 5833 5830 5826 5823 5819 5815 5812 5808 5804 5801 5797 5794 5790 5787 5784
5836 5839 5840 5841 5842 5843 5844 5844 5845 5846 5846 5846 5847 5847 5848 5848 5848 5849 5849 5849 5849 5849 5848 5847 5846 5844 5842 5839 5836 5833 5830 5827 5823 5820 5816 5812 5809 5805 5801 5798 5795 5791 5788 5784
5834 5837 5839 5839 5839 5840 5841 5842 5842 5843 5844 5844 5845 5848 5847 5847 5847 5848 5848 5848 5848 5848 5848 5847 5845 5843 5841 5839 5836 5833 5830 5826 5823 5820 5816 5812 5809 5805 5802 5798 5795 5791 5788 5784
5833 5835 5836 5837 5838 5838 5838 5839 5840 5841 5842 5842 5843 5848 5845 5846 5846 5847 5847 5847 5847 5847 5847 5846 5844 5842 5840 5838 5835 5832 5829 5826 5822 5819 5816 5812 5808 5805 5802 5798 5795 5791 5788 5784
5831 5833 5834 5835 5837 5837 5836 5837 5838 5839 5839 5840 5841 5845 5843 5844 5844 5845 5845 5846 5846 5846 5845 5844 5843 5841 5839 5837 5834 5831 5828 5825 5821 5818 5815 5811 5808 5804 5801 5798 5794 5791 5787 5784
5829 5829 5831 5832 5833 5833 5834 5835 5835 5836 5837 5838 5839 5841 5842 5842 5843 5843 5844 5844 5844 5844 5844 5843 5842 5840 5838 5835 5833 5830 5827 5823 5820 5817 5814 5810 5807 5803 5800 5797 5793 5790 5786 5783
5825 5826 5827 5828 5829 5830 5832 5832 5833 5834 5835 5836 5838 5838 5840 5841 5841 5842 5843 5843 5843 5842 5842 5841 5840 5838 5836 5834 5831 5828 5825 5822 5819 5815 5812 5809 5805 5802 5799 5795 5792 5789 5785 5782
5822 5823 5824 5825 5826 5826 5828 5830 5831 5831 5832 5834 5835 5837 5838 5839 5840 5840 5841 5841 5841 5841 5840 5839 5838 5836 5834 5832 5829 5826 5823 5820 5817 5814 5810 5807 5804 5801 5797 5794 5790 5787 5784 5780
5818 5819 5821 5822 5822 5823 5826 5828 5828 5829 5830 5831 5833 5835 5835 5837 5837 5838 5838 5839 5839 5838 5838 5836 5835 5833 5831 5829 5827 5824 5821 5818 5815 5812 5809 5805 5802 5799 5795 5792 5788 5785 5781 5778
5815 5815 5817 5818 5820 5820 5826 5824 5825 5826 5828 5829 5830 5831 5833 5834 5834 5835 5836 5836 5836 5835 5835 5833 5832 5830 5828 5826 5824 5821 5819 5816 5812 5809 5806 5803 5799 5796 5793 5789 5786 5782 5779 5775
5811 5811 5813 5814 5815 5817 5821 5822 5822 5824 5825 5826 5827 5829 5829 5830 5831 5832 5832 5832 5832 5832 5831 5830 5828 5827 5825 5823 5821 5818 5816 5813 5810 5807 5803 5800 5796 5793 5789 5786 5782 5779 5775 5772
5806 5807 5809 5810 5810 5813 5819 5818 5818 5821 5822 5823 5824 5825 5826 5827 5828 5828 5828 5828 5828 5828 5827 5826 5824 5823 5821 5819 5817 5815 5812 5809 5806 5803 5799 5796 5792 5789 5785 5781 5778 5775 5771 5768
5800 5802 5803 5804 5805 5809 5813 5813 5814 5817 5820 5819 5820 5821 5822 5823 5824 5824 5823 5823 5823 5823 5822 5821 5820 5818 5817 5815 5812 5810 5807 5805 5802 5798 5795 5791 5787 5783 5780 5776 5773 5770 5766 5763
5795 5796 5798 5799 5800 5807 5807 5808 5810 5812 5813 5814 5815 5816 5817 5818 5818 5818 5819 5818 5818 5818 5817 5816 5815 5814 5812 5810 5808 5805 5802 5800 5796 5793 5789 5785 5781 5777 5774 5770 5767 5764 5761 5758
5789 5791 5792 5794 5798 5799 5800 5802 5803 5805 5807 5808 5809 5810 5811 5812 5812 5813 5813 5813 5813 5812 5812 5811 5810 5808 5807 5805 5803 5800 5797 5794 5791 5787 5783 5779 5775 5771 5768 5764 5761 5757 5754 5752
5782 5783 5784 5787 5790 5792 5793 5795 5796 5798 5800 5802 5803 5804 5805 5806 5806 5806 5807 5807 5806 5806 5806 5805 5804 5803 5801 5799 5797 5794 5792 5789 5785 5782 5778 5774 5770 5766 5762 5758 5754 5751 5748 5745
5774 5775 5776 5779 5782 5784 5786 5787 5789 5791 5792 5794 5796 5797 5798 5799 5799 5799 5800 5800 5800 5799 5799 5798 5797 5796 5795 5793 5791 5788 5786 5783 5779 5776 5772 5768 5764 5760 5756 5752 5748 5745 5742 5739
5766 5766 5767 5770 5773 5774 5777 5779 5780 5782 5784 5786 5787 5789 5790 5791 5791 5792 5792 5792 5792 5792 5792 5791 5790 5789 5788 5786 5784 5782 5779 5776 5772 5769 5765 5761 5757 5753 5749 5745 5742 5738 5736 5733